Location: Sabalos
(43.2860°N, 0.1414°E)
Time: 08:01:19
(UTC+00:00)

Cosmos 923 Rocket - Pass Details

Date: 05 July 2020
Orbit: 757 x 786 km, 74.0° (Epoch: 14 August)

Event Time Altitude Azimuth Distance (km) Brightness Sun altitude
Exits shadow 21:52:24 31° 147° (SSE) 1,328 4.6 -17.4°
Maximum altitude 21:54:14 42° 103° (ESE) 1,093 4.5 -17.6°
Drops below altitude 10° 21:59:10 10° 34° (NNE) 2,327 6.8 -18.1°
Sets 22:01:40 0° 27° (NNE) 3,264 7.7 -18.3°
